Wind_Speed
8 13 8 13 17 15 12 20 9 28 16 25 17 9 9 8 6 6 7 7 7 7 7 10 15 20 24 26 30 33 33 33 35 32 32 31 28 25 21 17 16 14 11 8
9 9 10 16 16 18 17 19 13 22 25 27 22 7 6 9 10 8 7 7 8 7 8 9 15 18 23 24 29 33 28 29 33 36 32 28 25 22 18 16 14 11 9 5
16 5 8 17 15 19 9 7 9 9 18 6 5 7 8 9 12 13 10 9 10 13 11 15 18 21 21 23 28 27 34 35 33 31 28 25 22 19 18 16 13 9 6 2
12 4 17 10 5 6 12 13 11 13 17 7 6 5 6 10 15 12 10 9 8 7 15 20 24 24 28 28 29 32 33 33 31 30 26 22 21 19 16 13 10 7 3 2
8 13 18 24 19 8 7 16 7 13 21 12 5 2 5 7 12 15 14 10 10 16 20 23 26 29 29 27 30 32 32 32 29 26 25 22 19 16 13 10 6 2 2 5
13 13 11 4 5 7 6 17 8 10 20 6 7 3 5 10 10 9 9 17 18 19 21 22 24 32 31 27 30 29 30 27 23 21 20 18 16 13 10 6 2 2 4 6
16 14 13 5 3 1 4 6 19 16 9 6 7 5 3 11 10 12 17 19 22 24 23 26 31 32 27 28 27 28 26 24 21 19 18 16 14 10 7 4 2 3 5 8
8 10 21 15 3 4 9 13 12 18 16 9 5 1 5 8 13 15 14 17 21 22 23 28 32 33 27 24 28 27 24 23 21 19 17 15 12 9 6 3 2 5 8 10
4 4 17 11 7 13 6 9 13 17 22 15 7 5 6 7 11 14 16 21 24 24 23 25 32 35 28 30 29 27 26 24 21 18 15 13 11 7 3 2 5 6 7 7
11 10 15 21 30 11 9 9 14 13 20 16 11 5 5 9 9 12 16 20 24 25 23 21 28 31 32 30 29 28 25 22 20 18 14 10 5 1 1 2 3 3 5 7
17 19 20 20 16 17 10 14 13 17 17 18 9 6 7 9 10 10 16 21 26 25 24 21 25 28 31 30 29 27 23 21 18 14 10 6 3 3 2 2 2 6 7 9
19 20 15 21 19 18 18 16 15 15 23 22 8 7 6 8 11 14 16 23 22 22 27 27 29 29 27 26 23 21 20 16 12 10 8 6 5 4 3 3 4 5 7 9
21 23 19 21 21 17 10 12 14 16 16 20 8 5 6 8 10 19 18 24 25 24 27 30 31 28 22 18 16 18 17 14 11 8 5 4 3 2 4 5 7 7 8 8
23 18 20 23 15 14 9 10 13 15 13 8 5 9 12 8 18 18 16 23 32 30 30 31 28 23 18 17 17 15 13 11 8 6 4 3 2 3 5 7 9 12 12 12
26 19 22 20 20 14 12 10 14 12 7 2 5 8 11 11 11 17 21 25 32 32 28 27 26 22 19 17 15 13 11 8 6 6 4 3 3 4 5 7 10 14 18 17
18 18 20 20 21 18 16 14 15 12 4 3 5 9 14 15 20 22 23 27 27 19 22 24 25 22 18 14 12 11 9 7 6 5 4 4 4 4 7 8 10 12 16 19
12 17 17 18 17 17 17 14 13 7 10 7 7 17 25 22 21 19 19 20 25 24 24 27 25 20 15 12 11 10 11 9 6 4 3 3 5 7 9 10 11 16 18 18
14 20 18 17 14 14 14 10 10 10 9 11 16 17 20 19 16 21 22 24 25 23 21 21 21 17 13 11 10 11 9 7 6 4 3 5 7 9 9 10 15 15 18 18
14 15 17 15 15 12 9 8 8 15 19 19 18 13 19 22 23 23 25 25 20 18 17 19 17 14 11 10 10 10 9 7 6 4 5 7 9 10 12 13 15 16 17 17
18 16 14 11 12 8 7 10 19 18 19 20 23 22 20 21 22 21 19 16 15 15 21 17 13 10 9 11 9 9 7 6 5 5 7 9 10 12 12 11 14 16 17 17
20 16 15 7 8 13 17 20 24 18 21 24 24 20 21 19 19 20 18 12 13 18 16 12 9 9 9 8 8 7 5 6 7 9 10 11 11 12 14 16 16 16 17 18
11 10 9 17 19 18 23 23 24 24 24 25 25 24 23 19 20 16 14 19 18 14 12 10 8 6 5 5 5 6 6 7 9 10 11 11 12 13 16 17 17 18 20 22
18 18 20 21 22 25 30 28 27 26 26 23 22 21 19 17 15 14 8 13 13 9 8 6 4 3 2 4 6 6 7 9 10 11 12 12 14 15 17 18 19 21 24 24
19 25 26 34 36 32 20 26 28 28 28 26 25 21 20 19 20 17 17 12 9 6 5 3 1 1 3 4 6 8 9 9 9 10 12 13 15 16 17 20 22 24 24 23
30 33 34 31 19 16 25 24 27 25 24 25 24 20 16 12 15 13 11 10 7 4 3 1 1 1 4 6 7 8 9 9 10 13 14 15 17 20 20 22 25 23 23 24
27 22 26 29 24 21 19 19 19 16 18 18 19 21 19 17 14 11 9 7 5 2 1 2 2 3 5 6 6 8 9 11 13 16 17 19 21 22 24 25 25 25 25 25
26 26 22 23 24 22 20 19 17 16 16 16 17 15 14 13 10 8 7 6 6 5 4 4 3 4 5 8 10 12 14 15 15 17 18 20 22 23 23 23 24 25 25 26
Wind_Direction
254 259 268 266 273 264 225 250 222 272 261 271 275 233 234 218 195 186 169 156 152 146 143 140 137 132 130 134 141 146 145 146 152 155 159 153 151 151 151 149 139 133 130 128
275 277 249 259 255 263 250 252 248 258 274 270 281 266 177 192 175 195 181 167 148 134 136 137 136 136 138 139 145 149 147 148 153 155 148 149 151 148 145 142 141 141 138 131
275 256 310 279 221 242 235 204 211 225 253 290 245 228 212 193 189 187 187 169 164 159 149 146 135 135 134 136 142 145 146 151 151 146 149 153 147 150 151 148 146 142 130 103
275 298 267 255 207 247 247 251 215 256 263 236 231 240 230 196 190 180 174 172 162 148 139 138 135 135 138 145 147 149 148 151 153 153 152 149 155 156 151 149 145 138 116 16
246 245 271 285 290 270 194 279 253 239 264 239 175 186 251 190 181 179 174 169 156 151 143 141 143 147 146 147 150 149 150 155 156 156 154 157 157 153 152 150 143 122 350 336
232 241 253 230 331 281 136 272 280 239 258 198 146 195 244 179 162 149 152 151 147 144 142 141 147 153 149 146 149 152 158 158 158 160 159 157 157 154 148 144 150 310 313 317
242 248 257 264 285 54 192 326 341 348 308 188 219 198 147 148 151 156 155 150 149 150 150 152 156 154 143 151 155 161 160 159 159 162 162 161 156 154 156 174 234 293 313 325
242 249 239 1 33 350 326 328 341 343 335 281 278 147 128 146 147 144 140 140 147 142 142 150 155 154 147 155 163 162 161 161 163 164 165 162 163 162 173 201 288 333 328 323
304 295 313 304 311 300 287 318 338 336 330 313 255 218 155 147 148 147 147 148 149 142 142 151 159 163 154 162 162 162 163 164 164 164 165 167 172 174 173 344 336 327 319 308
274 253 299 311 307 295 304 321 326 331 332 312 259 220 167 137 147 149 147 146 146 143 147 151 160 162 163 162 164 163 162 165 167 165 162 162 162 191 281 279 283 279 295 304
270 268 285 274 265 290 334 316 320 323 330 322 275 224 191 152 149 153 146 144 148 147 144 142 153 158 161 161 163 162 166 164 160 159 158 159 175 202 226 226 271 308 315 318
263 266 271 283 295 295 307 304 314 329 329 323 253 206 174 163 150 146 144 137 134 139 137 142 151 150 153 156 160 164 158 155 155 158 164 175 187 192 220 289 295 308 311 310
258 265 260 260 265 270 265 300 316 315 313 301 258 179 174 143 145 139 143 134 133 134 131 136 137 136 142 149 163 166 159 157 158 165 175 191 204 271 309 309 315 321 323 315
245 248 251 250 253 266 217 246 279 299 290 274 205 150 141 149 140 131 147 138 131 131 132 137 139 138 147 160 158 154 152 158 166 171 180 187 233 278 296 312 317 322 330 325
253 249 254 259 260 237 259 288 292 279 258 239 137 129 132 144 138 123 133 131 128 131 134 139 139 143 155 155 155 150 155 159 165 169 178 203 230 265 292 304 314 319 325 325
261 249 246 248 254 260 262 257 247 250 225 209 166 137 131 130 121 124 130 133 130 131 133 140 150 151 153 154 152 152 154 158 167 177 195 221 260 280 296 300 301 300 308 311
258 253 247 248 248 251 250 242 232 235 216 188 175 147 128 119 116 123 114 126 132 133 145 155 151 151 152 154 158 160 163 163 168 183 217 243 276 283 286 285 285 297 300 305
258 259 257 252 246 242 243 228 220 186 170 158 150 145 135 142 141 128 117 121 122 128 143 150 152 151 153 157 163 163 167 170 183 197 232 264 275 281 278 281 295 295 297 301
291 265 252 239 236 229 223 200 165 145 135 148 148 135 124 124 121 116 125 124 125 125 143 151 151 153 154 159 166 169 175 182 194 227 259 282 279 279 291 293 296 297 298 298
283 270 266 234 201 187 153 132 126 129 136 136 124 119 114 114 120 124 123 110 131 146 148 150 153 158 163 161 172 178 189 202 237 261 284 294 289 291 291 288 292 292 295 295
274 258 245 209 128 113 121 129 127 124 132 123 114 112 108 111 115 121 111 103 121 142 147 150 160 161 167 177 185 197 211 248 264 278 291 290 287 282 286 293 295 295 295 288
269 207 150 106 98 94 100 106 110 110 103 100 103 108 109 102 106 107 121 128 138 144 146 147 151 158 174 193 217 249 251 267 276 286 288 284 284 287 292 295 294 297 294 296
50 79 94 94 94 92 85 83 85 90 91 95 100 99 96 101 110 112 106 130 136 134 138 144 148 148 204 249 266 261 268 276 285 283 282 286 288 291 293 294 295 298 298 301
60 65 75 83 85 80 77 73 79 82 84 85 87 97 105 99 86 101 114 117 116 122 126 132 121 41 289 265 272 283 288 289 286 287 291 290 289 292 292 293 296 300 301 300
53 58 60 66 72 75 81 86 79 80 84 81 87 93 94 98 109 114 116 109 103 115 134 127 37 336 278 290 288 279 276 281 290 294 296 297 297 296 294 296 298 297 298 298
43 52 56 58 65 69 73 82 86 85 90 86 78 87 91 94 99 101 96 95 93 83 24 356 353 334 307 295 284 282 285 290 288 287 288 287 291 293 294 298 297 298 299 299
46 48 50 52 48 58 66 71 73 72 76 83 85 88 89 88 84 83 77 67 52 34 22 10 350 322 303 301 297 295 294 292 292 293 292 289 290 293 296 299 300 301 301 300
Height
777 767 767 761 757 752 763 743 754 710 720 696 693 704 705 706 710 709 710 712 712 715 720 723 727 730 734 738 744 751 758 764 771 778 787 793 799 805 808 812 812 814 816 822
771 763 765 758 751 740 736 736 737 722 715 685 688 694 703 702 707 707 709 712 714 718 721 725 729 733 737 743 748 751 762 767 773 780 788 793 801 803 805 808 812 816 819 821
760 757 762 741 739 721 721 725 717 722 688 688 689 696 696 700 700 701 705 709 711 714 720 726 730 735 741 746 750 758 760 770 776 779 788 796 798 803 807 809 813 816 818 820
762 768 759 714 708 709 708 702 708 701 689 689 685 685 687 689 692 698 703 706 709 713 718 723 728 734 741 748 752 758 765 771 778 784 790 794 801 804 806 809 812 815 818 820
762 750 722 713 709 708 709 687 688 694 680 681 682 683 681 684 684 688 696 702 708 711 715 722 727 734 741 748 754 760 767 773 779 785 790 795 799 801 805 807 811 814 816 816
745 743 732 702 696 695 702 698 680 679 670 680 683 683 673 680 682 689 695 700 707 713 718 722 728 734 742 749 755 762 768 774 778 783 787 792 797 801 803 806 811 812 813 813
747 734 716 709 699 698 709 706 690 684 682 683 679 664 668 676 682 685 691 699 707 713 718 724 730 736 743 749 756 762 769 774 778 784 790 794 796 799 803 808 809 810 809 809
739 732 718 727 706 714 722 709 706 699 692 686 682 675 675 677 681 685 693 702 708 712 718 726 732 737 746 753 759 765 771 776 781 787 791 794 797 800 804 805 805 805 805 806
763 731 728 733 739 733 726 718 707 703 695 689 684 678 677 680 684 686 691 699 707 713 721 727 732 738 746 754 761 767 773 778 783 787 791 794 797 799 800 800 800 802 803 804
758 736 730 728 714 721 716 712 706 702 698 689 684 681 679 679 687 688 691 698 705 712 721 728 734 740 746 753 760 766 771 777 782 786 789 792 793 794 796 799 800 801 801 800
742 738 731 721 716 709 710 711 704 699 695 688 682 682 682 676 685 690 692 699 705 712 720 729 735 741 747 753 760 766 772 777 781 784 786 788 791 794 795 797 797 797 795 794
734 727 729 719 718 717 712 711 704 697 686 684 683 682 681 681 681 687 694 699 708 715 721 729 736 742 750 756 760 764 769 774 777 781 785 788 790 791 792 792 792 792 791 790
715 712 716 712 708 709 709 702 698 697 692 686 681 678 682 682 686 687 698 698 706 716 723 730 737 744 750 755 758 764 767 772 776 779 782 784 786 787 788 788 788 788 787 787
699 703 703 697 698 698 698 700 700 694 688 685 679 677 679 687 689 690 702 701 704 717 724 731 738 744 750 755 760 764 768 772 775 777 779 781 783 784 785 785 784 784 783 782
688 692 689 687 686 686 687 685 687 689 685 681 679 678 682 689 692 693 705 708 709 717 726 733 739 746 752 756 760 764 767 771 773 776 778 780 781 782 782 781 781 779 778 778
677 678 677 678 675 677 678 681 685 684 679 681 682 681 685 693 693 700 707 710 713 721 728 735 741 748 752 756 759 763 767 770 772 774 776 778 778 779 779 779 779 779 779 777
670 668 667 667 666 667 668 669 671 668 678 682 684 686 684 691 698 708 710 715 720 725 731 737 743 749 753 757 760 763 766 769 771 773 774 775 776 777 777 777 777 776 775 774
659 653 653 654 656 659 660 661 662 669 673 678 682 686 686 689 699 705 711 719 725 731 737 741 745 750 754 757 760 763 765 767 769 771 772 774 774 775 774 774 773 772 771 770
653 646 642 645 646 651 653 654 659 665 671 678 681 686 689 697 703 708 714 721 728 734 741 744 748 751 754 757 759 762 765 767 769 770 771 772 771 771 771 770 770 769 768 766
642 639 635 635 638 644 649 653 658 667 673 680 685 689 695 702 708 715 721 726 731 736 741 746 749 752 755 758 760 762 764 766 767 768 768 768 767 767 767 767 766 765 764 763
630 629 627 627 634 640 648 656 660 670 680 681 685 694 700 710 716 722 726 730 737 740 745 748 751 754 756 759 760 761 762 764 764 765 764 764 763 764 763 763 762 761 759 758
610 613 619 630 638 651 662 669 673 679 683 689 696 703 709 717 722 729 732 734 741 744 746 749 752 754 755 759 760 760 760 761 761 761 760 760 760 760 759 758 757 756 754 752
629 627 632 639 648 660 669 677 683 687 692 701 707 712 717 723 730 732 737 743 745 747 749 751 753 754 755 756 758 758 758 758 758 757 757 757 756 755 754 753 752 751 749 746
657 656 656 661 666 672 684 694 699 701 704 712 716 723 726 730 735 740 744 746 748 749 751 753 753 753 754 755 756 756 756 756 755 755 754 753 752 751 750 749 747 745 742 739
681 679 679 682 688 697 704 708 709 716 722 723 727 731 733 736 739 745 747 748 750 751 752 753 753 753 753 754 754 755 754 754 753 751 750 749 748 747 745 744 741 739 736 733
706 705 706 707 710 714 718 720 723 728 729 732 734 737 739 742 746 748 750 750 750 751 752 752 751 752 752 753 754 753 752 750 749 747 746 745 743 742 739 737 734 732 729 727
728 726 724 725 727 728 729 730 731 734 735 737 740 744 745 748 750 751 751 750 750 751 752 751 751 752 753 752 750 749 747 745 744 743 741 739 737 735 732 730 727 725 722 720